Terminal Aerodrome Forecast
Issued by NWS Chicago, IL

Home | Current Version | Previous Version | Text Only | Print | Product List | Glossary Off
Versions: 1 2 3 4 5 6 7 8 9 10 11 12 13 14 15 16 17 18 19 20 21 22 23 24 25 26 27 28 29 30 31 32 33 34 35 36

000
FTUS43 KLOT 282332
TAFRFD
TAF
KRFD 282332Z 2900/2924 16010G15KT P6SM FEW060 BKN250
     FM290200 13008KT P6SM BKN250
     FM290900 15006KT P6SM -SHRA BKN040
      TEMPO 2911/2913 -TSRA OVC040CB
     FM291400 19012G17KT 3SM TSRA BKN035CB
     FM291900 21014G21KT P6SM BKN035=

USA.gov is the U.S. government's official web portal to all federal, state and local government web resources and services.